AirNav   Everest Fuels
 
 1479 users online  

9CL7 Old Aerodrome
Marysville, California, USA

GOING TO MARYSVILLE?


FAA INFORMATION EFFECTIVE 02 DECEMBER 2021

Location

FAA Identifier: 9CL7
Lat/Long: 39-19-29.6060N 121-21-33.8640W
39-19.493433N 121-21.564400W
39.3248906,-121.3594067
(estimated)
Elevation: 700 ft. / 213 m (estimated)
Variation: 16E (1985)
From city: 13 miles S of MARYSVILLE, CA
Time zone: UTC -8 (UTC -7 during Daylight Saving Time)
Zip code: 95901

Airport Operations

Airport use: Private use. Permission required prior to landing
Activation date: 08/1974
Control tower: no
ARTCC: OAKLAND CENTER
FSS: RANCHO MURIETA FLIGHT SERVICE STATION
Attendance: UNATNDD
Wind indicator: yes
Segmented circle: no

Airport Communications

WX ASOS at OVE (16 nm NW): 121.425 (530-533-5792)
WX ASOS at MYV (17 nm SW): 118.475 (530-742-0695)
WX AWOS-3 at GOO (18 nm E): 121.325 (530-273-0029)

Nearby radio navigation aids

VOR radial/distance  VOR name  Freq  Var
MYVr020/16.8MARYSVILLE VOR/DME110.8016E
ILAr046/34.6WILLIAMS VORTAC114.4018E
MCCr346/39.5MC CLELLAN VOR/DME109.2017E

Airport Services

Airframe service: NONE
Powerplant service: NONE

Runway Information

Runway 16/34

Dimensions: 2300 x 100 ft. / 701 x 30 m
Surface: turf
RUNWAY 16  RUNWAY 34
Traffic pattern: leftleft
Obstructions: hills
HILL ON EITHER SIDE OF RWY.
hills

Airport Ownership and Management from official FAA records

Ownership: Privately-owned
Owner: EDWARD M. POPEJOY
P.O. BOX 56
BROWNS VALLEY, CA 95918
Phone (916) 448-3811

Airport Operational Statistics

Aircraft based on the field: 4
Single engine airplanes: 3
Ultralights: 1
    

Additional Remarks

FOR CD CTC NORCAL APCH AT 916-361-6874.

Instrument Procedures

There are no published instrument procedures at 9CL7.

Some nearby airports with instrument procedures:

KBAB - Beale Air Force Base (12 nm S)
KOVE - Oroville Municipal Airport (16 nm NW)
KMYV - Yuba County Airport (17 nm SW)
KGOO - Nevada County Airport (18 nm E)
KLHM - Lincoln Regional Airport/Karl Harder Field (25 nm S)
 
Loc | Ops | Rwys | IFR | FBO | Links
Com | Nav | Svcs | Stats | Notes
Area around 9CL7 (Old Aerodrome)
 
Road maps at: MapQuest Bing Google
 
Aerial photo
No photo
 
Sectional chart

 
Airport distance calculator
Flying to Old Aerodrome? Find the distance to fly.

From to 9CL7

Sunrise and sunset
Times for 06-Dec-2021
 Local
(UTC-8)
 Zulu
(UTC)
Morning civil twilight06:4214:42
Sunrise07:1215:12
Sunset16:4100:41
Evening civil twilight17:1101:11

Current date and time
Zulu (UTC)  06-Dec-2021 17:37:17
Local (UTC-8)  06-Dec-2021 09:37:17
 
METAR
KBAB 
12nm S 
061643Z 20003KT 2 1/4SM HZ OVC006 08/02 A3017 RMK AO2A OVC V BKN SLP220 $
KOVE 
16nm NW 
061721Z AUTO 12004KT 3/4SM BR OVC002 09/08 A3020 RMK AO2 T00890078
KMYV 
17nm SW 
061653Z AUTO 26004KT 2 1/2SM BR BKN005 OVC011 08/07 A3020 RMK AO2 PRESRR SLP231 T00830067
KGOO 
18nm E 
061715Z AUTO 00000KT 10SM CLR 09/M00 A3014 RMK A01
TAF
KBAB 
12nm S 
061100Z 0611/0717 15006KT 6000 BR OVC012 QNH3014INS BECMG 0616/0617 21006KT 8000 BR BKN016 OVC150 QNH3010INS BECMG 0620/0621 VRB06KT 6000 -RA BR BKN012 OVC120 QNH3007INS BECMG 0623/0624 VRB06KT 6000 BR SCT080 BKN110 QNH3000INS TEMPO 0704/0711 -SHRA OVC100 BECMG 0711/0712 33006KT 9999 NSW BKN120 QNH2998INS BECMG 0713/0714 33009KT 9999 SKC QNH3000INS TX11/0620Z TN06/0614Z
NOTAMs
Click for the latest NOTAMs
NOTAMs are issued by the DoD/FAA and will open in a separate window not controlled by AirNav.

 

 
 

Would you like to see your business listed on this page?

 If your business provides an interesting product or service to pilots, flight crews, aircraft, or users of the Old Aerodrome, you should consider listing it here.  To start the listing process, click on the button below
 
Add a business
 

Other Pages about Old Aerodrome

Update a link
 
Copyright © AirNav, LLC. All rights reserved. Privacy Policy  Contact